Disclaimer   
PNR Super Search
 ♦ 
×
HashTag:
PNR Number:
Train Type:
Train:
From Station:
To Station:
Train Class:
2SSLCCEx3AFC2A1A3E
WL Quota:
DOJ From:
DOJ To:
Blogger:
Traveller:
Predictor:
Prediction:
WLRACConf
Stamper:
Final:
WLRACConfVoidQ-ConfUnStamped
Status:
Reaction:

Search
  Go  
 
Fri Feb 27, 2015 18:39:10 ISTHomeTrainsΣChainsAtlasPNRForumGalleryNewsFAQTripsMembersLoginFeedback
Fri Feb 27, 2015 18:39:10 IST
Post PNRPNR StatusModify Search

Ticket PNR Status Inquiry - PNR: 115-xxxxxxx (PRS)

OLD STATUS

Status Last Updated on: Dec 13 2011 (8:57AM) IST

Date of Journey: Tue Dec 13, 2011   Class: Sleeper - SL   (Total Seats available for this Class/Quota: Avbl >127)
Passenger 1: Waitlist# 6 (Booking Status: W/L 28,GNWL)
Chart PREPARED

Tirupati Kakinada Port Passenger/57257

Travel Time: 10h 55m    51 halts    Distance: 387 km    Avg Speed: 35 km/hr
Type: Passenger
Zone: SCR/South Central
Departs @ 01:05 (Avg 8m late)
Platform# 5
SMTWTFS
TPTY/Tirupati Main 
Arrives @ 12:00 (Avg 1h 3m late)
Platform# 2
SMTWTFS
BZA/Vijayawada Junction 

51 halts. 60 intermediate Stations between Tirupati Main and Vijayawada Junction

Show ALL intermediate Stations  Show Old Time-Table

#TrkCodeStation NameX/OArrivesAvgDepartsAvgHaltPFDay#KmSpeedElevZoneAddress
1/==/TPTYTirupati Main»  -01:05+8510.040150mSCRChittoor Distt, Andhra Pradesh
2/==/RURenigunta JunctionX  01:20+1701:22+312m219.949113mSCRChittoor District, Andhra Pradesh
3/==/YPDYerpedu  01:34+3801:35+381m--119.86780mSCRChittoor, Andhra Pradesh
4/==/KHTSri Kalahasti  01:47+3801:48+391m2133.15668mSCRChittoor District, Andhra Pradesh
5/==/YLKYellakaru  02:01+4002:02+411m1145.26173mSCRCoastal Andhra Region, Andhra Pradesh
6/==/VKIVenkatagiriX  02:14+3802:15+391m1157.58077mSCRNellore District, Andhra Pradesh
7/==/NDZNidigallu  02:21+4302:22+441m--165.512955mSCRSiddavaram, Andhra Pradesh
8/==/VDDVendodu  02:26+4902:28+502m--174.15755mSCRNellore, Andhra Pradesh
9/==/KQAKondaguntaX  02:38+4902:40+502m1183.5953mSCRNellore, Andhra Pradesh
10/==/GDRGudur JunctionX  03:45+1304:00+815m2193.36419mSCRGudur, Andhra Pradesh
11/==/MBLManuboluX  04:09+1404:10+151m--1102.86222mSCRManubolu Railway Station, Andhra Pradesh
12/==/VKTVenkatachalamX  04:22+1904:23+201m11115.27026mSCRVenkatachelam, Andhra Pradesh
13/==/VDEVedayapalemX  04:31+2104:33+202m11124.55427mSCRNellore, Andhra Pradesh
14/==/NLSNellore South  04:39+004:40+01m11129.82322mSCRNellore, Andhra Pradesh
15/==/NLRNelloreX  04:45+1504:46+171m21131.83421mSCRNellore, Andhra Pradesh
16/==/PGUPadugupaduX  04:53+2404:54+261m11135.85621mSCRKovur, Andhra Pradesh
17/==/KJJKodavaluruX  05:02+2705:03+281m--1143.25717mSCRNational Highway 5, Andhra Pradesh
18/==/TMCTalamanchiX  05:08+3105:10+322m--1148.06315mSCRNational Highway 5, Andhra Pradesh
19/==/AXRAlluru RoadX  05:21+3205:22+371m--1159.5498mSCRNational Highway 5, Andhra Pradesh
20/==/BTTRBitraguntaX  05:30+4005:31+1:151m11166.12515mSCRBitragunta, Andhra Pradesh
21/==/SVPMSri Venkateswarapalem  05:41+1:1605:42+1:181m--1170.2-22mSCRNational Highway 5, Andhra Pradesh
22/==/KVZKavaliX  05:44+1:2605:55+1:1911m31182.57121mSCRKavali, Andhra Pradesh
23/==/TTUTettuX  06:07+1:2406:08+1:301m--1196.87624mSCRNational Highway 5, Andhra Pradesh
24/==/UPDUlavapaduX  06:19+1:3206:20+1:341m--1210.65813mSCRUlavapadu, Andhra Pradesh
25/==/SKMSingarayakondaO  06:30+1:3506:31+1:361m11220.36426mSCRSingarayakonda, Andhra Pradesh
26/==/TNRTanguturuX  06:40+1:3806:41+1:411m--1229.95010mSCRTanguturu, Andhra Pradesh
27/==/SDMSurareddipalemX  06:51+1:4206:52+1:441m--1238.2199mSCRSurareddy Palem, Andhra Pradesh
28/==/OGLOngole  07:24+1:2107:25+1:241m11248.54712mSCROngole, Andhra Pradesh
29/==/KRVKaravadi  07:36+1:2507:37+1:261m--1257.14711mSCRKaravadi, Andhra Pradesh
30/==/ANBAmmanabroluX  07:45+1:2707:46+1:281m--1263.43316mSCRAmmanabrolu, Andhra Pradesh
31/==/RPRLRaparla HaltX  07:52-07:53-1m--1266.7659mSCRNH 214A, Andhra Pradesh
32/==/UGDUppugunduru  07:57+1:2907:58+1:321m--1271.0435mSCRUppugundur Machavaram Rd, Andhra Pradesh
33/==/CJMChinnaganjamX  08:07+1:3408:08+1:361m--1277.6479mSCRChinna Ganjam, Andhra Pradesh
34/==/KVDUKadavakuduru  08:14-08:15-1m--1282.2518mSCRKadavakuduru, Andhra Pradesh
35/==/KPLLKottapandillapalliX  08:20-08:21-1m--1286.5428mSCRNH 214A, Andhra Pradesh
36/==/VTMVetapalem  08:26+1:3608:27+1:381m--1290.0478mSCRVetapalem, Andhra Pradesh
37/==/JAQJandrapeta  08:33-08:34-1m--1294.7389mSCRChirala, Andhra Pradesh
38/==/CLXChiralaX  08:39+1:3508:40+1:381m--1297.9428mSCRChirala, Andhra Pradesh
39/==/IPPMIpurupalemXO  08:46-08:47-1m--1302.1488mSCRIpurupalem, Andhra Pradesh
40/==/SPFStuartpuramX  08:52+1:4208:53+1:431m--1306.1599mSCRBapatla West Rural, Andhra Pradesh
41/==/BPPBapatlaX  09:00+1:4209:01+1:431m--1312.94810mSCRBapatla, Andhra Pradesh
42/==/APLAppikatlaX  09:12+1:4409:13+1:471m--1321.7517mSCRGBC Rd, Andhra Pradesh
43/==/MCVMMachavaramX  09:21+1:1309:22+1:131m--1328.5607mSCRMachavaram, Andhra Pradesh
44/==/NDONidubrolu  09:27+1:4709:28+1:511m--1333.5469mSCRNidubrolu, Andhra Pradesh
45/==/MDKUModukuruX  09:37-09:38-1m--1340.44310mSCRModukuru, Andhra Pradesh
46/==/TSRTsunduruX  09:43+1:5109:44+1:521m--1344.02012mSCRTsunduru, Andhra Pradesh
47/==/TELTenali Junction  10:19+1:2810:20+1:311m41355.59116mSCRTel: 08644-227834, Andhra Pradesh
48/==/KLXKolakalur  10:24-10:25-1m--1361.64415mSCRNandivelugu Rd, Andhra Pradesh
49/==/DIGDuggirala  10:30+1:4210:31+1:431m--1365.25016mSCRDuggirala, Andhra Pradesh
50/==/CLVRChiluvur  10:38-10:39-1m--1371.04620mSCRChiluvuru, Andhra Pradesh
51/==/PVDPeddavadlapudiX  10:44+1:4010:45+1:411m--1374.92320mSCRKL University to NH 5, Andhra Pradesh
52/==/KCCKrishna Canal JunctionXO  11:04+1:3511:05+1:401m--1382.1521mSCRTadepalli, Andhra Pradesh
53/==/BZAVijayawada Junction•XO  12:00+1:0312:30+1:0730m21386.83924mSCRVijayawada 520001, Andhra Pradesh
54/==/MBDMustabadaX  12:50+1:3212:51+1:391m--1399.75220mSCRKrishna, Andhra Pradesh
55/==/GWMGannavaram  12:59+1:4313:00+1:451m--1406.64024mSCRGannavaram, Andhra Pradesh
56/==/PAVPPedda AvutapaleX  13:07+1:4613:08+1:471m--1411.26025mSCRPedda Avutapalle, Andhra Pradesh
57/==/TOUTelaproluX  13:15+1:4913:16+1:511m--1418.33820mSCRKrishna, Andhra Pradesh
58/==/VRVLVeeravalliX  13:21-13:22-1m--1421.45621mSCRViravalli, Andhra Pradesh
59/==/NZDNuzvidX  13:29+1:5213:30+1:561m--1427.95928mSCRHanuman Junction, Andhra Pradesh
60/==/VATVatlur  13:40+1:5713:41+2:051m--1437.76016mSCREluru, Andhra Pradesh
61/==/PRHPowerpet  13:48-13:49-1m--1444.72220mSCREluru, Andhra Pradesh
62/==/EEEluruX  13:53+1:5013:54+1:551m--1446.25319mSCREluru Ph.no. 08812 226401., Andhra Pradesh
63/==/DELDenduluru  14:05+2:0714:06+2:101m--1455.92721mSCRWest Godavari, Andhra Pradesh
64/==/STPTSitampetX  14:14-14:15-1m--1459.65620mSCREGK Rd, Andhra Pradesh
65/==/BMDBhimadolu  14:21+2:0814:22+2:191m--1465.25014mSCRBhimadolu, Andhra Pradesh
66/==/PUAPulla  14:30+2:2214:31+2:291m--1471.96515mSCRPulla, Andhra Pradesh
67/==/KKRMKaikaramXO  14:35-14:36-1m--1476.24119mSCRKaikaram, Andhra Pradesh
68/==/CELChebrol  14:41+2:3014:42+2:401m--1479.63518mSCRWest Godavari District, Andhra Pradesh
69/==/VGTUnguturuX  14:47-14:48-1m--1482.66517mSCRUnguturu, Andhra Pradesh
70/==/BPYBadampudiXO  14:53+2:4114:54+2:451m--1488.03620mSCRBadampudi, Andhra Pradesh
71/==/TDDTadepalligudem  15:04+2:2615:05+2:311m21493.93918mSCRTadepalligudem, Andhra Pradesh
72/==/NBMNavabpalem  15:19+2:4715:20+3:001m--1503.02216mSCRWest Godavari District, Andhra Pradesh
73/==/MRPLMarampalliXO  15:29-15:30-1m--1506.3417mSCRMarampalli Rd, Andhra Pradesh
74/==/NDDNidadavolu Junction  17:19+1:2217:20+1:271m--1513.95220mSCRNidadavolu jtn ph.no. 08813-210325, Andhra Pradesh
75/==/BMGMBrahmanagudemO  17:24-17:25-1m--1517.45218mSCRNidadavolu, Andhra Pradesh
76/==/CUChagallu  17:30+1:2917:31+1:341m--1521.74218mSCRWest Godavari, Andhra Pradesh
77/==/PSDAPasivedalaX  17:36-17:37-1m--1525.23722mSCRWest Godavari District, Andhra Pradesh
78/==/KVRKovvurX  17:42+1:3317:43+1:411m--1528.24125mSCRWest Godavari, Andhra Pradesh
79/==/GVNGodavariXO  17:50+1:5317:51+1:541m--1533.1724mSCRRajahmundry, Andhra Pradesh
80/==/RJYRajahmundryX  18:15+1:3418:20+1:385m31536.16723mSCRRajahmundry ph.no. 0883-2420541, Andhra Pradesh
81/==/KYMKadiyamX  18:29+1:4918:32+1:483m11546.16715mSCREast Godavari, Andhra Pradesh
82/==/KSVMKesavaramX  18:37-18:38-1m--1551.75116mSCRKesavaram, Andhra Pradesh
83/==/DWPDwarapudi  18:43+2:4018:44+2:401m--1556.04520mSCREast Godavari District, Andhra Pradesh
84/==/APTAnaparti  18:49+1:2318:50+1:231m--1559.89021mSCREast Godavari District, Andhra Pradesh
85/==/BBPMBalabhadrapuram  18:54-18:55-1m--1565.84023mSCRBalabhadhrapuram, Andhra Pradesh
86/==/BVLBikkavoluX  19:00+1:1419:01+1:151m--1569.16816mSCREast Godavari District, Andhra Pradesh
87/==/PBDPeddabrahmadevam  19:06-19:07-1m--1574.82916mSCRPedabramadvam, Andhra Pradesh
88/==/MPUMedapadu  19:12+1:1619:13+1:191m--1577.25420mSCRMedapadu, Andhra Pradesh
89/==/GDPTGudapartiX  19:18-19:19-1m--1581.72021mSCRVetlapalem, Andhra Pradesh
90/==/SLOSamalkot Junction  19:33+1:3219:35+1:322m21586.33718mSCRSamalkot, Andhra Pradesh
91/==/CCTKakinada Town Junction  19:55+1:2820:00+1:285m21598.7211mSCREast Godavari, Andhra Pradesh
92/==/COAKakinada Port  20:45+36---1600.3-5mSCRKakinada, Andhra Pradesh
Scroll to Top
Scroll to Bottom


Go to Mobile site